Location: Castroserna de Arriba
(41.1903°N, 3.7160°W)
Time: 12:35:17
(UTC+00:00)

Daily predictions for brighter satellites

Satellite Brightness Start Highest point End
(mag) Time Altitude Azimuth Time Altitude Azimuth Time Altitude Azimuth
Cosmos 2279 Rocket 4.0 17:12:53 10° S 17:18:59 65° E 17:25:09 10° NNE
Meteor 1-28 Rocket 3.1 17:16:29 10° N 17:19:49 74° WNW 17:23:08 10° SSW
Lacrosse 5 rocket 3.0 17:21:27 10° W 17:24:25 22° NNW 17:27:22 10° NNE
IGS 5A 3.4 17:20:30 10° SSE 17:24:26 89° W 17:28:25 10° NNW
Cosmos 1092 Rocket 4.3 17:18:39 10° NNW 17:24:48 73° W 17:30:52 10° S
SAR-Lupe-4 4.2 17:23:17 10° SE 17:26:31 34° ENE 17:29:46 10° N
MOS 1 Rocket 4.0 17:24:47 10° SE 17:29:03 34° ENE 17:33:33 10° N
COSMO-SKYMED 1 4.2 17:29:12 10° ENE 17:31:07 13° E 17:33:07 10° ESE
Cosmos 1602 Rocket 4.1 17:28:51 10° N 17:32:54 35° ENE 17:36:53 10° SE
Cosmos 1315 Rocket 4.2 17:29:22 10° SW 17:32:55 38° WNW 17:36:31 10° N
Cosmos 1777 Rocket 4.3 17:29:05 10° S 17:34:07 48° ESE 17:39:08 10° NNE
Cosmos 1980 Rocket 3.9 17:34:08 10° ESE 17:36:18 12° E 17:37:44 11° E
CZ-4C R/B 3.5 17:30:10 10° NNW 17:36:29 35° NE 17:44:05 10° ESE
IRS-P3 4.5 17:34:00 10° SE 17:38:57 42° ENE 17:43:57 10° N
Cosmos 1570 Rocket 4.0 17:34:36 10° NNW 17:39:58 79° ENE 17:45:16 10° SSE
Cosmos 1782 2.5 17:36:27 10° S 17:40:03 87° W 17:43:40 10° N
YAOGAN 1 3.9 17:39:53 10° ESE 17:42:44 18° ENE 17:45:34 10° NNE
Cosmos 1733 1.2 17:44:06 10° N 17:46:00 88° WNW 17:47:53 10° S
Cosmos 836 Rocket 4.5 17:42:54 10° NNW 17:48:10 84° ENE 17:53:26 10° SSE
Cosmos 1486 Rocket 4.0 17:43:22 10° SSW 17:48:34 85° ESE 17:53:49 10° NNE
Cosmos 405 Rocket 3.0 17:46:53 10° NNW 17:50:04 55° W 17:53:12 10° S
NOSS 2-2 (D) 4.3 17:48:42 10° WSW 17:51:52 32° NW 17:54:40 10° NNE
Cosmos 2263 Rocket 3.7 17:49:54 10° N 17:53:15 16° NE 17:53:46 16° NE
CENTAUR R/B 4.1 17:48:33 10° W 17:53:25 27° NW 17:59:17 10° NNE
SJ-12 3.6 17:49:45 10° SSE 17:53:29 72° ENE 17:57:17 10° N
Cosmos 2360 4.2 17:48:35 10° SSW 17:54:18 88° WNW 18:00:04 10° NNE
IRIDIUM 106 4.3 17:50:52 10° N 17:56:05 68° E 18:01:16 10° S
CORIOLIS 4.5 17:51:00 10° S 17:56:18 70° WSW 18:01:38 10° NNW
Cosmos 1933 3.6 17:52:53 10° SSE 17:56:30 42° E 17:59:50 12° NNE
SJ-6F 4.4 17:52:55 10° SSE 17:56:47 55° ENE 18:00:41 10° N
Cosmos 2266 Rocket 3.9 17:53:03 10° N 17:59:10 63° E 18:05:09 10° SSE
SL-16 R/B 4.0 17:54:58 10° N 18:00:34 36° WNW 18:06:07 10° SW
Cosmos 1607 4.1 17:55:01 10° NNW 18:01:05 51° NE 18:07:12 10° SE
NOSS 2-2 (E) 4.3 17:57:59 10° WSW 18:01:11 32° NW 18:03:40 12° NNE
Cosmos 2227 Rocket 3.0 17:57:55 10° N 18:02:49 29° NE 18:06:42 14° ESE
Cosmos 773 Rocket 4.0 18:00:27 10° NNW 18:05:40 86° WSW 18:10:55 10° SSE
ARIANE 5 R/B 2.7 18:01:04 10° S 18:06:05 77° WSW 18:11:12 10° NNW
Cosmos 1825 Rocket 3.9 18:03:09 10° N 18:07:15 40° ENE 18:11:19 10° SSE
Cosmos 2098 Rocket 3.7 18:03:48 10° SSW 18:07:25 51° W 18:11:45 10° N
Cosmos 1758 Rocket 4.3 18:04:14 10° NNW 18:08:26 54° W 18:12:35 10° S
BREEZE M DEB (TANK) 2.7 18:06:26 10° W 18:08:44 33° NNW 18:09:12 29° N
SPOT 1/Viking Rocket 3.6 18:04:11 10° SSE 18:09:13 53° ENE 18:14:16 10° N
EXPRESS MD2 4.4 18:10:04 10° S 18:11:40 18° SE 18:11:40 18° SE
BREEZE-M DEB (TANK) 2.3 18:12:01 10° W 18:13:32 27° NNW 18:13:35 27° NNW
Cosmos 2208 Rocket 4.2 18:08:44 10° NNW 18:13:53 72° WSW 18:19:02 10° S
Cosmos 990 Rocket 4.0 18:11:45 10° S 18:16:44 57° ESE 18:20:06 21° NNE
Cosmos 2058 Rocket 4.5 18:13:20 10° SE 18:15:38 21° ESE 18:15:38 21° ESE
AQUARIUS 4.3 18:13:26 10° S 18:17:49 73° WSW 18:22:14 10° NNW
Cosmos 1697 Rocket 2.6 18:12:17 10° SSW 18:17:49 67° ESE 18:21:56 18° NNE
USA 290 2.1 18:19:28 10° NNW 18:22:43 86° WSW 18:25:58 10° SSE
Helios 1A Rocket 3.4 18:25:10 30° SE 18:25:10 30° SE 18:27:25 10° S
Gbstr 26 Del rocket 2.6 18:20:25 10° SW 18:24:29 76° SE 18:25:30 46° ENE
Meteor 1-20 Rocket 4.3 18:21:58 10° NNW 18:27:25 75° W 18:32:51 10° S
Cosmos 1606 Rocket 3.9 18:33:09 10° SSW 18:37:30 67° W 18:41:48 11° N
Cosmos 2151 4.3 18:36:38 10° NNW 18:40:31 39° W 18:44:23 10° SSW
NOSS 2-3 (E) 2.9 18:38:00 10° SSW 18:41:41 75° SE 18:41:41 75° SE
Cosmos 783 Rocket 4.4 18:36:25 10° NNW 18:41:45 89° ENE 18:47:01 10° SSE
BlueWalker 3 1.9 18:38:29 10° NW 18:42:06 69° SW 18:42:35 59° S
ATLAS CENTAUR R/B 1.7 18:40:04 10° NW 18:43:09 45° WSW 18:44:08 32° SSW
Resurs 1-3 3.4 18:40:18 10° SSE 18:44:34 78° ENE 18:48:53 10° N
NOSS 2-3 (D) 3.1 18:41:14 10° SSW 18:44:44 71° SSE 18:44:44 71° SSE
NOSS 3-2 (C) 3.9 18:41:52 10° WSW 18:46:39 46° NW 18:50:02 22° NNE
Cosmos 1076 Rocket 3.3 18:43:15 10° N 18:47:32 72° E 18:51:50 10° SSE
Cosmos 1461 3.9 18:44:47 10° WSW 18:48:25 38° NW 18:49:36 30° NNW
Cosmos 1655 Rocket 3.9 18:44:02 10° N 18:50:18 84° E 18:56:31 10° S
OceanSat 1 rocket 4.4 18:48:09 10° SSE 18:52:54 74° ENE 18:57:38 10° N
Meteor 2-20 4.4 18:48:57 10° S 18:55:07 89° W 19:01:19 10° N
Cosmos 2297 Rocket 3.2 18:50:38 10° NW 18:56:02 47° WSW 19:01:24 10° S
Spot 4 Rocket 4.3 18:58:25 10° S 19:03:27 67° WSW 19:08:33 10° NNW
Meteor 2-10 4.4 18:58:08 10° N 19:09:09 - SSE 19:02:08 49° NNE
COSMO-SKYMED 1 3.3 19:05:32 37° NNW 19:06:41 48° WNW 19:10:38 10° SSW
Meteor 1-5 Rocket 4.5 19:07:01 10° NNW 19:12:17 62° W 19:17:39 10° S
SL-19 R/B 4.5 19:09:43 10° S 19:14:56 65° WSW 19:20:25 10° NNW
Meteor 2-20 Rocket 4.4 19:11:18 10° S 19:17:39 84° W 19:20:29 35° N
YAOGAN 1 3.7 19:14:14 10° S 19:18:14 41° W 19:22:17 10° NNW
Cosmos 1898 Rocket 4.4 19:13:12 10° S 19:16:20 37° S 19:16:20 37° S
Cosmos 1980 Rocket 2.1 19:13:45 10° SSW 19:19:25 86° WNW 19:19:32 85° NNW
Meteor 2-2 Rocket 4.1 19:16:34 10° S 19:22:01 83° SSW 19:22:01 83° SSW
Cosmos 1867 3.8 19:18:58 10° NW 19:24:23 68° WSW 19:24:45 65° SW
CZ-4C R/B 3.3 19:17:57 10° NW 19:25:20 69° WSW 19:34:11 10° SSE
Cosmos 2263 Rocket 3.2 19:32:15 10° NNW 19:35:30 36° NNW 19:35:30 36° NNW
USA 238 DEB 3.8 19:40:03 10° SW 19:45:50 61° WNW 19:45:50 61° WNW
USA 238 3.8 19:40:09 10° SW 19:45:55 62° WNW 19:45:55 62° WNW
Cosmos 2227 Rocket 3.3 19:41:40 10° NW 19:46:57 42° WSW 19:48:42 33° SSW
USA 215 4.3 19:51:47 34° NNW 19:51:47 34° NNW 19:55:50 10° NW
BREEZE-M DEB (TANK) 4.2 19:50:05 10° WNW 19:55:03 82° NNE 19:55:13 82° NE
